Regional Weather Roundup
Issued by NWS Sterling, VA

Home | Current Version | Previous Version | Graphics & Text | Print | Product List | Glossary On
Versions: 1 2 3 4 5 6 7 8 9 10 11 12 13 14 15 16 17 18 19 20 21 22 23 24 25 26 27 28
000
ASUS41 KLWX 270211
RWRLWX

REGIONAL WEATHER ROUNDUP
NATIONAL WEATHER SERVICE BALTIMORE MD/WASHINGTON DC
1000 PM EDT WED JUL 26 2017

Note: "FAIR" indicates few or no clouds below 12,000 feet
with no significant weather and/or obstructions to visibility.
 TC=TEMPERATURE CELSIUS

 * =Non NWS site. Station does not report precipitation (e.g. rain,
    snow, etc.), thunder, or fog.

DCZ001-MDZ009-015-VAZ040>042-051-053>054-270300-
WASHINGTON METRO

CITY           SKY/WX    TMP DP  RH WIND       PRES   REMARKS
WASHINGTON NAT PTCLDY    77  69  76 SE8       30.11R
DULLES         MOCLDY    75  65  70 SE6       30.10R
ANDREWS AFB    PTCLDY    72  68  87 E7        30.11R
FT BELVOIR     PTCLDY    74  65  73 SE3       30.10R
QUANTICO       CLOUDY    79  71  76 S14       30.10R
COLLEGE PARK*  MOCLDY    74  68  79 SE3       30.11R
LEESBURG*      PTCLDY    77  68  73 E3        30.11R
MANASSAS*      MOCLDY    74  67  78 CALM      30.10R
GAITHERSBURG*  MOCLDY    71  66  84 VRB3      30.12R

$$

MDZ006>007-011-014-270300-
BALTIMORE METRO

CITY           SKY/WX    TMP DP  RH WIND       PRES   REMARKS
BWI AIRPORT    MOCLDY    74  67  78 SE10      30.11R
MD SCIENCE CTR   N/A     77  67  71 MISG      30.12R
MARTIN STATE   MOCLDY    73  70  88 SE9       30.14R
ANNAPOLIS      PTCLDY    76  71  85 SE18      30.12R
FORT MEADE*    CLOUDY    73  66  78 SE6       30.14R

$$

MDZ012-015-019>023-270300-
MARYLAND EASTERN SHORE

CITY           SKY/WX    TMP DP  RH WIND       PRES   REMARKS
OCEAN CITY     CLOUDY    72  65  78 SE7       30.14S
SALISBURY      PTCLDY    67  66  97 E5        30.13S
BAY BRIDGE AP* CLOUDY    73  64  73 SE12      30.12R
CAMBRIDGE*     PTCLDY    70  66  88 SE7       30.13R
EASTON*        MOCLDY    72  64  78 SE5       30.17R

$$

MDZ017>025-270300-
SOUTHERN MARYLAND

CITY           SKY/WX    TMP DP  RH WIND       PRES   REMARKS
PATUXENT RIVER MOCLDY    75  69  81 SE12      30.11R
ST INIGOES     CLOUDY    76  69  79 SE8       30.10R
LEONARDTOWN*   PTCLDY    72  66  83 SE7       30.13R

$$

MDZ003>005-270300-
NORTH CENTRAL MARYLAND

CITY           SKY/WX    TMP DP  RH WIND       PRES   REMARKS
FREDERICK*     NOT AVBL
HAGERSTOWN APT PTCLDY    75  63  66 E6        30.10S
WESTMINSTER*   CLOUDY    73  66  78 SE5       30.13R

$$

MDZ501>502-270300-
WESTERN MARYLAND

CITY           SKY/WX    TMP DP  RH WIND       PRES   REMARKS
OAKLAND*       MOCLDY    64  61  88 SE7       30.16R
CUMBERLAND*    CLOUDY    73  64  73 CALM      30.13R

$$

VAZ025>031-270300-
SHENANDOAH VALLEY

CITY           SKY/WX    TMP DP  RH WIND       PRES   REMARKS
WINCHESTER*    CLOUDY    68  63  83 CALM      30.09S
FRONT ROYAL*   CLOUDY    75  64  69 CALM      30.09R
LURAY*         MOCLDY    73  66  78 CALM      30.10S
NEW MARKET*    PTCLDY    72  65  80 CALM      30.10R
STAUNTON*      CLEAR     72  65  79 CALM      30.13S
WAYNESBORO*    CLEAR     69  67  93 CALM      30.13S

$$

WVZ021-048>050-054>055-270300-
EASTERN WEST VIRGINIA PANHANDLE

CITY           SKY/WX    TMP DP  RH WIND       PRES   REMARKS
MARTINSBURG    PTCLDY    71  63  75 E3        30.09R
PETERSBURG*    CLOUDY    78  67  69 NW3       30.09R

$$

VAZ036>039-050-270300-
CENTRAL FOOTHILLS

CITY           SKY/WX    TMP DP  RH WIND       PRES   REMARKS
CHARLOTTESVILL CLEAR     73  67  81 CALM      30.10R
CULPEPER*      MOCLDY    76  69  77 CALM      30.10S
ORANGE*        PTCLDY    72  66  83 E5        30.09S
GORDONSVILLE*  PTCLDY    72  68  89 CALM      30.09S
WARRENTON*     PTCLDY    76  65  68 SE6       30.09S

$$

VAZ055>057-270300-
NORTH AND CENTRAL PIEDMONT

CITY           SKY/WX    TMP DP  RH WIND       PRES   REMARKS
FREDERICKSBRG* PTCLDY    76  69  78 SE3       30.09R
STAFFORD*      MOCLDY    72  70  92 SE3       30.13S

$$

NCZ024-NYZ072-PAZ021-071-VAZ022-071-270300-
OTHER REGIONAL OBSERVATIONS

CITY           SKY/WX    TMP DP  RH WIND       PRES   REMARKS
NEW YORK CITY  CLEAR     68  56  65 S5        30.17S
PHILADELPHIA   MOCLDY    70  61  73 SE8       30.15R
PITTSBURGH     MOCLDY    72  65  78 CALM      30.08F
ROANOKE        MOCLDY    77  67  71 S5        30.14R
RICHMOND       PTCLDY    74  65  73 SE9       30.10R
RALEIGH        MOCLDY    82  68  62 S7        30.09R

$$

ANZ530>537-270300-
MARINE OBSERVATIONS

STATION/POSITION TIME  TEMP    WIND        PRES
                       AIR SEA DIR/SP/G
                 (UTC) (F)     (DEG/KT/KT) (MB)
THOMAS PT LIGHT  0200   73 82  130/ 16/ 17   N/A
BALT KEY BRIDGE  0148   75     140/ 14/ 17 1019.2R
COVE POINT       0148   75     160/ 18/ 21 1020.2R
LEWISETTA        0148   74 84  170/  6/  7 1019.5R
SOLOMONS ISLAND  0142   77 83  150/ 13/ 18   N/A
PINEY POINT      0148          180/ 13/ 15   N/A

$$





USA.gov is the U.S. government's official web portal to all federal, state and local government web resources and services.